Regional Weather Roundup
Issued by NWS

Home | Current Version | Previous Version | Graphics & Text | Print | Product List | Glossary On
Versions: 1 2 3 4 5 6 7 8 9 10 11 12 13 14 15 16 17 18 19 20 21 22 23 24 25 26 27 28 29 30 31 32 33 34 35 36 37 38 39 40 41 42 43 44 45 46 47 48 49 50
671
ASUS43 KTOP 191708
RWRKS

WEATHER ROUNDUP FOR KANSAS
NATIONAL WEATHER SERVICE GOODLAND KS
1100 AM CST SUN NOV 19 2017

NOTE:  "FAIR" INDICATES FEW OR NO CLOUDS BELOW 12,000 FEET WITH NO
SIGNIFICANT WEATHER AND/OR OBSTRUCTIONS TO VISIBILITY.

KSZ001>006-013>018-027>032-041>047-191800-
NORTHWEST KANSAS

CITY           SKY/WX    TMP DP  RH WIND       PRES   REMARKS
GOODLAND       CLOUDY    47  20  34 SW14      30.14F
HAYS           SUNNY     50  25  37 SW12      30.21F
HILL CITY      SUNNY     51  22  31 SW13      30.20F
RUSSELL        SUNNY     47  25  42 SW15      30.20F
$$

KSZ061>065-074>080-084>089-191800-
SOUTHWEST KANSAS

CITY           SKY/WX    TMP DP  RH WIND       PRES   REMARKS
DODGE CITY     CLOUDY    53  16  23 S22G30    30.22F
ELKHART        SUNNY     53  28  37 SW8       30.20F
GARDEN CITY    CLOUDY    48  19  31 SW15      30.19F
GREAT BEND     SUNNY     50  22  33 SW16      30.24F
LIBERAL        SUNNY     51  17  26 SW21      30.23F
PRATT          SUNNY     52  19  26 SW15      30.27F
$$

KSZ066>073-081>083-090>101-191800-
SOUTHEAST KANSAS

CITY           SKY/WX    TMP DP  RH WIND       PRES   REMARKS
CHANUTE        SUNNY     47  28  47 SE5       30.31F
COFFEYVILLE    SUNNY     47  30  51 CALM      30.33F
HUTCHINSON     SUNNY     51  26  37 SW8       30.25F
MEDICINE LODGE   N/A     53  21  28 SW14      30.28F
PARSONS        SUNNY     46  30  53 CALM      30.33F
WICHITA INTL   MOSUNNY   50  27  40 S8        30.29F
WICHITA JABRA  SUNNY     51  25  36 SW8       30.28F
WICHITA MCCONL SUNNY     50  26  39 SW8       30.29F
WINFIELD       SUNNY     50  29  44 SW10      30.32F
$$

KSZ007>012-019>026-033>040-048>060-102>105-191800-
NORTHEAST KANSAS

CITY           SKY/WX    TMP DP  RH WIND       PRES   REMARKS
CONCORDIA      SUNNY     45  26  47 W9        30.21F
EMPORIA        SUNNY     49  29  46 S9        30.27F
LAWRENCE       SUNNY     43  27  53 SE5       30.29F
MANHATTAN      SUNNY     46  29  51 SW8       30.26F
MARYSVILLE     SUNNY     45  32  61 SW7       30.22F
OLATHE IND     SUNNY     42  21  43 CALM      30.29F
OLATHE EXE     SUNNY     40  22  48 S5        30.29F
SALINA         SUNNY     52  26  36 SW8       30.25F
TOPEKA BILLARD SUNNY     46  28  49 S8        30.27F
TOPEKA FORBES  SUNNY     47  28  47 S7        30.27F
$$




USA.gov is the U.S. government's official web portal to all federal, state and local government web resources and services.